Chennai, India

5:45 PM IST on September 25, 2016 (GMT +0530)
Chennai International

Weather History for VOMM - October, 2012

Change the Weather History Date:

Tuesday, October 16, 2012

  Actual Average Record
Temperature  
Mean Temperature 82 °F -  
Max Temperature 91 °F 85 °F 95 °F (2010)
Min Temperature 74 °F 75 °F 73 °F (1996)
Cooling Degree Days 18    
Growing Degree Days 32 (Base 50)    
Moisture  
Dew Point 75 °F    
Average Humidity 77    
Maximum Humidity 89    
Minimum Humidity 47    
Precipitation  
Precipitation 0.39 in - - ()
Sea Level Pressure  
Sea Level Pressure 29.89 in    
Wind  
Wind Speed 4 mph ()    
Max Wind Speed 13 mph    
Max Gust Speed -    
Visibility 3.0 miles    
Events Rain , Thunderstorm    
Averages and records for this station are not official NWS values.
T = Trace of Precipitation, MM = Missing Value Source: Averaged Metar Reports

Daily Weather History Graph

Daily Weather History Graph

Search for Another Location

Airport or City:

Trip Planner

Search our weather history database for the weather conditions in past years. The results will help you decide how hot, cold, wet, or windy it might be!

Date:

Astronomy

Oct. 16, 2012 Rise Set
Actual Time 5:59 AM IST 5:49 PM IST
Civil Twilight 5:38 AM IST 6:11 PM IST
Nautical Twilight 5:13 AM IST 6:35 PM IST
Astronomical Twilight 4:48 AM IST 7:00 PM IST
Moon 6:33 AM IST (10/16) 6:31 PM IST (10/16)
Length of Visible Light 12h 32m
Length of Day
11h 49m
New Moon, 1% of the Moon is Illuminated
Oct 16
New Moon
Oct 22
First Quarter
Oct 30
Full
Nov 7
Last Quarter
Nov 14
New

Hourly Weather History & Observations

Time (IST) Temp. Heat Index Dew Point Humidity Pressure Visibility Wind Dir Wind Speed Gust Speed Precip Events Conditions
12:10 AM 80.6 °F 86.2 °F 75.2 °F 84% 29.89 in 3.7 mi WSW 6.9 mph - N/A   Scattered Clouds
12:40 AM 80.6 °F 86.2 °F 75.2 °F 84% 29.89 in 3.7 mi WSW 5.8 mph - N/A   Scattered Clouds
1:10 AM 80.6 °F 86.2 °F 75.2 °F 84% 29.89 in 3.7 mi West 6.9 mph - N/A   Partly Cloudy
1:40 AM 80.6 °F 86.2 °F 75.2 °F 84% 29.89 in 3.7 mi NW 6.9 mph - N/A   Scattered Clouds
2:10 AM 77.0 °F - 73.4 °F 89% 29.89 in 2.5 mi Variable 3.5 mph - N/A Rain , Thunderstorm Light Thunderstorms and Rain
2:30 AM 77 °F - 73 °F 85% 29.90 in 1 mi Calm Calm - - Rain , Thunderstorm Thunderstorms and Rain
2:40 AM 75.2 °F - 71.6 °F 89% 29.86 in 2.5 mi West 5.8 mph - N/A Rain , Thunderstorm Light Thunderstorms and Rain
3:10 AM 77.0 °F - 73.4 °F 89% 29.86 in 3.1 mi SW 3.5 mph - N/A   Light Drizzle
3:40 AM 77.0 °F - 73.4 °F 89% 29.86 in 3.1 mi Calm Calm - N/A   Haze
4:10 AM 77.0 °F - 73.4 °F 89% 29.86 in 3.1 mi Calm Calm - N/A   Haze
4:40 AM 77.0 °F - 73.4 °F 89% 29.86 in 3.1 mi NW 3.5 mph - N/A   Haze
5:10 AM 77.0 °F - 73.4 °F 89% 29.86 in 3.1 mi Calm Calm - N/A   Haze
5:30 AM 77 °F - 74 °F 87% 29.90 in 2 mi Calm Calm - -   Partly Cloudy
5:40 AM 77.0 °F - 73.4 °F 89% 29.89 in 2.5 mi Calm Calm - N/A   Haze
6:10 AM 77.0 °F - 73.4 °F 89% 29.89 in 2.5 mi Calm Calm - N/A   Haze
6:40 AM 77.0 °F - 73.4 °F 89% 29.89 in 2.5 mi NW 3.5 mph - N/A   Haze
7:10 AM 78.8 °F - 75.2 °F 89% 29.92 in 2.5 mi NW 3.5 mph - N/A   Haze
7:40 AM 80.6 °F 87.1 °F 77.0 °F 89% 29.92 in 2.5 mi NW 3.5 mph - N/A   Haze
8:10 AM 80.6 °F 87.1 °F 77.0 °F 89% 29.92 in 2.5 mi NNW 3.5 mph - N/A   Haze
8:30 AM 83 °F - 77 °F 78% 29.96 in 6 mi Calm Calm - -   Scattered Clouds
8:40 AM 82.4 °F 90.9 °F 77.0 °F 84% 29.95 in 2.5 mi NW 4.6 mph - N/A   Haze
9:10 AM 84.2 °F 94.1 °F 77.0 °F 79% 29.95 in 2.5 mi NW 3.5 mph - N/A   Haze
9:40 AM 87.8 °F 99.7 °F 77.0 °F 70% 29.95 in 3.7 mi NNW 3.5 mph - N/A   Scattered Clouds
10:10 AM 87.8 °F 97.6 °F 75.2 °F 66% 29.95 in 3.7 mi NNW 5.8 mph - N/A   Mostly Cloudy
10:40 AM 87.8 °F 97.6 °F 75.2 °F 66% 29.92 in 3.7 mi NNE 3.5 mph - N/A   Mostly Cloudy
11:10 AM 89.6 °F 99.8 °F 75.2 °F 62% 29.92 in 3.7 mi NNW 5.8 mph - N/A   Mostly Cloudy
11:30 AM 90 °F - 72 °F 47% 29.94 in 6 mi ESE 3.5 mph - -   Partly Cloudy
11:40 AM 89.6 °F 98.2 °F 73.4 °F 59% 29.92 in 3.7 mi NNW 5.8 mph - N/A   Mostly Cloudy
12:10 PM 89.6 °F 98.2 °F 73.4 °F 59% 29.89 in 3.7 mi North 6.9 mph - N/A   Mostly Cloudy
12:40 PM 89.6 °F 99.8 °F 75.2 °F 62% 29.89 in 3.7 mi NNE 6.9 mph - N/A   Light Drizzle
1:40 PM 84.2 °F 94.1 °F 77.0 °F 79% 29.86 in 1.9 mi East 9.2 mph - N/A Rain Light Rain
2:10 PM 87.8 °F 99.7 °F 77.0 °F 70% 29.83 in 3.1 mi NE 9.2 mph - N/A   Haze
2:30 PM 88 °F - 77 °F 63% 29.86 in 6 mi NE 5.8 mph - -   Partly Cloudy
2:40 PM 87.8 °F 97.6 °F 75.2 °F 66% 29.83 in 3.1 mi NE 9.2 mph - N/A   Haze
3:10 PM 86.0 °F 95.1 °F 75.2 °F 70% 29.83 in 3.1 mi NE 12.7 mph - N/A   Light Drizzle
3:40 PM 86.0 °F 95.1 °F 75.2 °F 70% 29.83 in 2.5 mi ENE 9.2 mph - N/A   Haze
4:10 PM 86.0 °F 95.1 °F 75.2 °F 70% 29.83 in 2.5 mi ENE 11.5 mph - N/A   Haze
4:40 PM 86.0 °F 95.1 °F 75.2 °F 70% 29.83 in 2.5 mi ENE 11.5 mph - N/A   Haze
5:10 PM 84.2 °F 90.9 °F 73.4 °F 70% 29.83 in 2.5 mi NE 10.4 mph - N/A   Haze
5:30 PM 85 °F - 72 °F 56% 29.87 in 6 mi NE 4.6 mph - -   Partly Cloudy
5:40 PM 84.2 °F 89.6 °F 71.6 °F 66% 29.86 in 2.5 mi NE 9.2 mph - N/A   Haze
6:40 PM 84.2 °F 92.3 °F 75.2 °F 74% 29.89 in 2.5 mi NNE 11.5 mph - N/A   Haze
7:10 PM 80.6 °F 85.4 °F 73.4 °F 79% 29.89 in 2.5 mi NNE 6.9 mph - N/A   Haze
7:40 PM 80.6 °F 85.4 °F 73.4 °F 79% 29.89 in 2.5 mi North 5.8 mph - N/A   Haze
8:10 PM 80.6 °F 85.4 °F 73.4 °F 79% 29.92 in 2.5 mi NNE 4.6 mph - N/A   Haze
8:40 PM 82.4 °F 89.5 °F 75.2 °F 79% 29.92 in 2.5 mi NNE 4.6 mph - N/A   Haze
9:10 PM 82.4 °F 89.5 °F 75.2 °F 79% 29.92 in 2.5 mi NNE 4.6 mph - N/A   Haze
9:40 PM 82.4 °F 89.5 °F 75.2 °F 79% 29.92 in 2.5 mi NNE 6.9 mph - N/A   Haze
10:10 PM 82.4 °F 89.5 °F 75.2 °F 79% 29.92 in 2.5 mi NNE 6.9 mph - N/A   Haze
10:40 PM 82.4 °F 89.5 °F 75.2 °F 79% 29.92 in 2.5 mi North 4.6 mph - N/A   Haze
11:10 PM 82.4 °F 89.5 °F 75.2 °F 79% 29.92 in 2.5 mi Calm Calm - N/A   Haze
11:30 PM 82 °F - 76 °F 76% 29.94 in 2 mi NE 2.3 mph - -   Scattered Clouds
11:40 PM 80.6 °F 86.2 °F 75.2 °F 84% 29.92 in 2.5 mi Calm Calm - N/A   Haze